Tracking 29799 objects as of 11-Oct-2024
HD Live streaming from Space Station
objects crossing your sky now

ICEYE-X31

Track ICEYE-X31 now!
10-day predictions


NORAD ID: 58288
Int'l Code: 2023-174AJ
Perigee: 529.8 km
Apogee: 532.5 km
Inclination: 97.4 °
Period: 95.1 minutes
Semi major axis: 6902 km
RCS: Unknown
Launch date: November 11, 2023
Source: (FIN)
Launch site: AIR FORCE WESTERN TEST RANGE (AFWTR)
Your satellite tracking list
Your tracking list is empty




NASA's NSSDC Master Catalog

Two Line Element Set (TLE):
1 58288U 23174AJ  24285.16792338  .00118494  00000-0  64286-2 0  9993
2 58288  97.4456 357.1857 0001941 351.1357   8.9840 15.14007233 51241
Source of the keplerian elements: AFSPC